Regional Weather Roundup
Issued by NWS

Home | Current Version | Previous Version | Text Only | Print | Product List | Glossary Off
Versions: 1 2 3 4 5 6 7 8 9 10 11 12 13 14 15 16 17 18 19 20 21 22 23 24 25 26 27 28 29 30 31 32 33 34 35 36 37 38 39 40 41 42 43 44 45 46 47 48 49 50

000
ASUS45 KTFX 271710
RWRMT
MONTANA REGIONAL WEATHER ROUNDUP
NATIONAL WEATHER SERVICE GREAT FALLS MT
1100 AM MDT MON JUL 27 2015

NOTE: "FAIR" INDICATES FEW OR NO CLOUDS BELOW 12000 FEET WITH NO
SIGNIFICANT WEATHER AND/OR OBSTRUCTIONS TO VISIBILITY.

MTZ001>007-043-271800-
WEST OF THE DIVIDE

CITY           SKY/WX    TMP DP  RH WIND       PRES   REMARKS
KALISPELL      CLOUDY    59  43  55 S3        29.97R
MISSOULA       LGT RAIN  54  50  86 E3        30.01S
BUTTE          LGT RAIN  47  43  86 NW7       30.01S
MULLAN PASS    LGT RAIN  43  38  82 NW8       30.07R
DEER LODGE       N/A     50  46  87 NW8       30.03F
EUREKA           N/A     61  45  55 W5        29.99S
HAMILTON         N/A     52  46  82 S5        30.02S
LIBBY            N/A     55  45  67 CALM      30.01R
PLAINS           N/A     62  41  46 CALM      30.00R
RONAN            N/A     59  47  64 SE6       30.04R
$$

MTZ008-052>055-271800-
SOUTHWEST MONTANA

CITY           SKY/WX    TMP DP  RH WIND       PRES   REMARKS
BOZEMAN        CLOUDY    55  51  86 W15       29.91S
DILLON         LGT RAIN  49  46  90 S5        29.98F
W YELLOWSTONE  PTSUNNY   63  45  51 SW13G22   29.94R
TWIN BRIDGES     N/A     52  45  77 S7        29.98R
$$

MTZ009-010-012-014-046-048-049-054-271800-
EAST SLOPES AND CENTRAL MONTANA

CITY           SKY/WX    TMP DP  RH WIND       PRES   REMARKS
CUT BANK       CLOUDY    54  47  77 N7        29.95R
GREAT FALLS    LGT RAIN  53  50  89 W9        29.93S
MALMSTROM AFB  LGT RAIN  53  50  90 W10       29.93R
HELENA         LGT RAIN  54  51  90 NW10      29.95S FOG
CONRAD           N/A     53  53 100 W6        29.98R
$$

MTZ011-013-016-021-045-047-050-051-271800-
NORTH CENTRAL MONTANA

CITY           SKY/WX    TMP DP  RH WIND       PRES   REMARKS
HAVRE          HVY RAIN  57  55  93 W15       29.87R FOG
LEWISTOWN      CLOUDY    61  55  81 NW12      29.88F
CHINOOK          N/A     64  61  88 W7        29.85R
FORT BENTON      N/A     55  52  88 NW8       29.90F
$$

MTZ017>020-022>027-061-062-271800-
NORTHEAST MONTANA

CITY           SKY/WX    TMP DP  RH WIND       PRES   REMARKS
GLASGOW        MOSUNNY   75  58  55 NE17      29.74F
JORDAN           N/A     72  56  57 N15       29.76R
SIDNEY         SUNNY    N/A N/A N/A E13       29.70S
WOLF POINT     SUNNY     80  58  46 E10       29.71F
MALTA            N/A     73  58  59 NE14      29.77F
PLENTYWOOD       N/A     73  61  64 NE12G18   29.76F
POPLAR           N/A     79  59  50 E10G16    29.71F
SCOBEY           N/A     74  59  59 NE16      29.78F
$$

MTZ028>42-056>058-271800-
SOUTHCENTRAL AND SOUTHEAST MONTANA

CITY           SKY/WX    TMP DP  RH WIND       PRES   REMARKS
BAKER          MOSUNNY   82  58  43 S8        29.74R
BILLINGS       PTSUNNY   67  53  61 NE9       29.82F
LIVINGSTON     MOSUNNY   71  50  47 E7        29.83F
MILES CITY     SUNNY     80  60  50 NW9       29.70S
EKALAKA          N/A     80  57  45 W8        29.75F
FORSYTH          N/A     77  59  53 NW7       29.71F
LAUREL           N/A     69  53  56 N6        29.82F
ROUNDUP          N/A     71  52  51 N13       29.75F
$$

REGIONAL REPORTS...DAKOTAS

CITY           SKY/WX    TMP DP  RH WIND       PRES   REMARKS
WILLISTON      SUNNY     83  56  39 SE15      29.72F
MINOT          MOSUNNY   81  64  56 E15G22    29.76F
DICKINSON      SUNNY     79  62  56 E16       29.74F
BEACH          FAIR      82  59  44 SE16G22   29.73S
CROSBY         FAIR      75  68  78 SE14G22   29.75S
BISMARCK       SUNNY     84  67  56 S14G20    29.77F
GRAND FORKS    PTSUNNY   83  71  67 S9        29.85F
FARGO          PTSUNNY   82  70  66 SE13      29.86S
BUFFALO SD       N/A     81  60  48 S13G21    29.68S
RAPID CITY     MOSUNNY   83  65  54 S16       29.76F
$$

REGIONAL REPORTS...WYOMING/IDAHO/WASHINGTON

CITY           SKY/WX    TMP DP  RH WIND       PRES   REMARKS
GILLETTE       PTSUNNY   79  48  33 NW3       29.79F
SHERIDAN       SUNNY     72  53  51 NW9G20    29.80F
BUFFALO WY     SUNNY     72  50  45 N8        29.84F
CODY           MOSUNNY   63  52  67 N14       29.85F
YELLOWSTONE LA   N/A     65  38  36 W9G16     29.99F
IDAHO FALLS    CLOUDY    59  46  62 SW30G43   29.98R
SALMON         CLOUDY    52  52 100 N3        29.98R
BOISE          MOSUNNY   65  41  41 W18       30.04S
SPOKANE        PTSUNNY   64  42  44 VRB5      30.03R
$$

REGIONAL REPORTS...ALBERTA

CITY           SKY/WX    TMP DP  RH WIND       PRES   REMARKS
EDMONTON       MOSUNNY   64  48  55 N5        29.95R
CALGARY        PTSUNNY   59  43  55 NW12      29.99S
LETHBRIDGE     PTSUNNY   59  46  63 NW10      29.96S
MEDICINE HAT   CLOUDY    61  52  72 SW5       29.89R
WATERTON GATE    N/A     59  43  55 NE6         N/A
CARDSTON         N/A     59  45  58 N5          N/A
MILK RIVER       N/A     55  46  71 NW10        N/A
ONEFOUR          N/A     52  50  93 NW20        N/A
$$

REGIONAL REPORTS...SASKATCHEWAN

CITY           SKY/WX    TMP DP  RH WIND       PRES   REMARKS
SWIFT CURRENT  LGT RAIN  61  59  94 MISG      29.85F
REGINA         TSTM      63  55  77 N10G22    29.89R
SASKATOON      CLOUDY    66  57  72 N5        29.90S
CYPRESS HILLS    N/A     55  52  88 N6          N/A
VAL MARIE        N/A     70  57  64 NE23        N/A
ROCKGLEN         N/A     59  57  94 N12G18      N/A
$$


USA.gov is the U.S. government's official web portal to all federal, state and local government web resources and services.